Regional Weather Roundup
Issued by NWS

Home | Current Version | Previous Version | Graphics & Text | Print | Product List | Glossary Off
Versions: 1 2 3 4 5 6 7 8 9 10 11 12 13 14 15 16 17 18 19 20 21 22 23 24 25 26 27

000
ASUS45 KCYS 210610
RWRWY

WYOMING REGIONAL WEATHER ROUNDUP
NATIONAL WEATHER SERVICE CHEYENNE WY
1200 AM MDT FRI JUL 21 2017

NOTE:  "FAIR" INDICATES FEW OR NO CLOUDS BELOW 12,000 FEET
WITH NO SIGNIFICANT WEATHER AND/OR OBSTRUCTIONS TO VISIBILITY.

WYZ001-210700-
YELLOWSTONE NATIONAL PARK

CITY           SKY/WX    TMP DP  RH WIND       PRES   REMARKS
LK YELLOWSTONE   N/A     47  46  97 CALM      30.28S
6HR MIN TEMP:  47; 6HR MAX TEMP:  68;

W YELLOWSTONE  NOT AVBL

$$
WYZ002>013-054>058-071-098>099-210700-
NORTHERN WYOMING

CITY           SKY/WX    TMP DP  RH WIND       PRES   REMARKS
JACKSON        FAIR      57  54  88 CALM      30.20S
CODY           FAIR      66  54  65 SE6       30.02S
GREYBULL       FAIR      63  59  87 SE5       29.96S
6HR MIN TEMP:  63; 6HR MAX TEMP:  77; 6HR PCP:  0.04;

WORLAND        FAIR      60  58  92 SE8       29.97R
6HR MIN TEMP:  60; 6HR MAX TEMP:  80; 6HR PCP:  0.01;

SHERIDAN       FAIR      72  52  49 SE6       29.89R
6HR MIN TEMP:  70; 6HR MAX TEMP:  82; 6HR PCP:  0.01;

BUFFALO        FAIR      74  47  38 SE5       29.99R
6HR MIN TEMP:  70; 6HR MAX TEMP:  80; 6HR PCP:  0.06;

GILLETTE       FAIR      68  59  73 S10       29.97R
6HR MIN TEMP:  67; 6HR MAX TEMP:  95; 6HR PCP: TRACE;

HULETT         FAIR      68  59  73 SE18G28   29.94S
NEWCASTLE      RAIN      70  55  60 NE21G30   29.98F

$$
WYZ014>020-022>026-101>103-210700-
CENTRAL WYOMING

CITY           SKY/WX    TMP DP  RH WIND       PRES   REMARKS
BIG PINEY      FAIR      56  53  90 CALM      30.24F
6HR MIN TEMP:  56; 6HR MAX TEMP:  70; 6HR PCP: TRACE;

PINEDALE       FAIR      55  54  94 NW7       30.25F
DUBOIS         FAIR      54  50  87 W10       30.22S
LANDER         FAIR      64  56  75 NW8       30.13R
6HR MIN TEMP:  62; 6HR MAX TEMP:  86; 6HR PCP:  0.24;

RIVERTON       FAIR      65  57  75 SW9       30.11S
6HR MIN TEMP:  62; 6HR MAX TEMP:  76; 6HR PCP:  0.07;

CASPER         FAIR      64  56  75 W8        30.08F
6HR MIN TEMP:  63; 6HR MAX TEMP:  93; 6HR PCP: TRACE;

DOUGLAS        FAIR      64  61  90 S9        30.09F
6HR MIN TEMP:  64; 6HR MAX TEMP:  89; 6HR PCP:  0.18;


$$
WYZ021-027>030-104>119-210700-
SOUTHERN WYOMING

CITY           SKY/WX    TMP DP  RH WIND       PRES   REMARKS
EVANSTON       FAIR      68  51  54 W6        30.24S
6HR MIN TEMP:  68; 6HR MAX TEMP:  83;

KEMMERER         N/A    N/A N/A N/A E3        30.26S
FORT BRIDGER   FAIR      68  51  54 NE3       30.27F
ROCK SPRINGS   LGT RAIN  62  55  77 SE15      30.24R
6HR MIN TEMP:  62; 6HR MAX TEMP:  88; 6HR PCP:  0.02;

RAWLINS        RAIN      61  56  83 SE7       30.31R
6HR MIN TEMP:  61; 6HR MAX TEMP:  85; 6HR PCP:  0.01;

SARATOGA       CLOUDY    61  54  77 NW7       30.32S
LARAMIE        MOCLDY    61  52  72 NW21G28   30.29R
6HR MIN TEMP:  59; 6HR MAX TEMP:  75; 6HR PCP:  0.10;

CHEYENNE       FAIR      65  55  70 W13       30.15R
6HR MIN TEMP:  65; 6HR MAX TEMP:  84; 6HR PCP:  0.03;

TORRINGTON     FAIR      73  57  57 NW23G30   30.02R
6HR MIN TEMP:  73; 6HR MAX TEMP:  85;

PINE BLUFFS    FAIR      70  50  49 CALM      30.08S

$$




USA.gov is the U.S. government's official web portal to all federal, state and local government web resources and services.